Location: Newark
(33.6439°N, 114.9881°W)
Time: 17:05:57
(UTC+00:00)

Vanguard 1 - Visible Passes

Search period start: 19 October 2019 00:00
Search period end: 29 October 2019 00:00
Orbit: 653 x 3830 km, 34.2° (Epoch: 18 October)

Date Brightness Start Highest point End Pass type
(mag) Time Alt. Az. Time Alt. Az. Time Alt. Az.
19 Oct 11.2 02:30:52 10° WSW 02:38:38 74° SSE 02:46:30 29° E visible
19 Oct 11.9 04:50:43 10° W 04:59:11 66° W 04:59:11 66° W visible
19 Oct 13.7 07:49:49 12° ESE 07:49:49 12° ESE 07:51:03 10° ESE visible
19 Oct 13.4 10:02:34 32° S 10:02:34 32° S 10:13:56 10° SSE visible
19 Oct 13.8 12:15:19 12° WSW 12:17:47 12° SW 12:24:18 10° SSW visible
20 Oct 11.2 02:51:42 10° WSW 02:59:46 83° SSE 03:06:02 38° E visible
20 Oct 12.2 05:11:48 10° W 05:18:43 51° W 05:18:43 51° W visible
20 Oct 13.9 08:09:57 15° SE 08:09:57 15° SE 08:12:14 10° SE visible
20 Oct 13.5 10:22:42 27° SSW 10:22:42 27° SSW 10:33:28 10° SSE visible
21 Oct 11.3 03:12:39 10° W 03:21:03 90° SSE 03:25:34 50° E visible
21 Oct 12.5 05:32:54 10° W 05:38:15 39° W 05:38:15 39° W visible
21 Oct 14.0 08:30:00 16° SE 08:30:00 16° SE 08:33:06 10° SE visible
21 Oct 13.7 10:42:44 22° SSW 10:42:44 22° SSW 10:52:18 10° S visible
22 Oct 10.9 01:14:30 10° SW 01:20:36 59° SSE 01:31:38 10° ENE visible
22 Oct 11.3 03:33:38 10° W 03:42:24 87° N 03:45:06 64° E visible
22 Oct 12.8 05:53:59 10° WNW 05:57:47 28° W 05:57:47 28° W visible
22 Oct 14.0 08:49:57 17° SSE 08:49:57 17° SSE 08:53:35 10° SSE visible
22 Oct 13.8 11:02:41 16° SSW 11:02:41 16° SSW 11:09:53 10° S visible
23 Oct 10.8 01:35:11 10° WSW 01:41:32 73° SSE 01:51:56 14° E visible
23 Oct 11.4 03:54:38 10° W 04:03:48 87° N 04:04:37 81° ENE visible
23 Oct 13.2 06:15:05 10° WNW 06:17:19 20° W 06:17:19 20° W visible
23 Oct 14.0 09:09:49 17° SSE 09:09:49 17° SSE 09:13:37 10° SSE visible
23 Oct 14.0 11:22:32 11° SW 11:22:32 11° SW 11:23:53 10° SSW visible
24 Oct 10.8 01:56:01 10° WSW 02:02:36 84° SSE 02:11:28 20° E visible
24 Oct 11.5 04:15:39 10° W 04:24:09 79° W 04:24:09 79° W visible
24 Oct 13.4 06:36:15 10° WNW 06:36:51 12° W 06:36:51 12° W visible
24 Oct 14.0 09:29:35 15° S 09:29:35 15° S 09:33:05 10° SSE visible
25 Oct 10.8 02:16:56 10° W 02:23:47 89° N 02:31:01 27° E visible
25 Oct 11.7 04:36:40 10° W 04:43:42 61° W 04:43:42 61° W visible
25 Oct13.707:36:35SE07:36:35SE06:56:23WNWvisible
25 Oct 14.0 09:49:16 13° S 09:49:16 13° S 09:51:46 10° S visible
26 Oct 10.9 02:37:53 10° W 02:45:01 86° N 02:50:35 37° E visible
26 Oct 12.1 04:57:41 10° W 05:03:17 45° W 05:03:17 45° W visible
26 Oct13.907:56:11SE07:56:11SE07:15:58WNWvisible
26 Oct 14.1 10:08:52 10° SSW 10:08:52 10° SSW 10:09:00 10° SSW visible
27 Oct 11.0 02:58:51 10° W 03:06:18 87° N 03:10:10 49° E visible
27 Oct 12.5 05:18:44 10° W 05:22:52 32° W 05:22:52 32° W visible
28 Oct 11.0 03:19:48 10° W 03:27:33 88° S 03:29:47 64° ESE visible
28 Oct 12.9 05:39:51 10° W 05:42:29 22° W 05:42:29 22° W visible
